Terminal Aerodrome Forecast
Issued by NWS Sterling, VA

Home | Current Version | Previous Version | Text Only | Print | Product List | Glossary On
Versions: 1 2 3 4 5 6 7 8 9 10 11 12 13 14 15 16 17 18 19 20 21 22 23 24
000
FTUS41 KLWX 310800 AAA
TAFBWI
TAF AMD
KBWI 310858Z 3109/0112 00000KT P6SM BKN060
     FM311700 08004KT P6SM BKN050
     FM010400 02004KT P6SM BKN090
     FM011100 36008KT P6SM OVC050=

USA.gov is the U.S. government's official web portal to all federal, state and local government web resources and services.